STARLINK-2503

Last updated on Sat May 08 2021 00:02:05 GMT+0000 (Coordinated Universal Time)

1 48151U 21027BM 21127.58334491 .00056750 00000-0 40588-3 0 9992 2 48151 53.0478 191.7841 0002372 29.1442 256.1013 15.73203480 1771

Satellite not in orbit